Erie, PA

8:04 AM EDT on October 15, 2019 (GMT -0400)
Erie International

Weather History for KERI - August, 2019

Change the Weather History Date:

Friday, August 30, 2019

  Actual Average Record
Temperature  
Mean Temperature 68 °F 69 °F  
Max Temperature 75 °F 77 °F 94 °F (1953)
Min Temperature 61 °F 61 °F 44 °F (1965)
Degree Days  
Heating Degree Days 0 1  
Month to date heating degree days 0 5  
Since 1 June heating degree days 38 73  
Since 1 July heating degree days 0 12  
Cooling Degree Days 4 5  
Month to date cooling degree days 225 180  
Year to date cooling degree days 690 555  
Since 1 June cooling degree days 657 516  
Growing Degree Days 18 (Base 50)    
Moisture  
Dew Point 58 °F    
Average Humidity 64    
Maximum Humidity 84    
Minimum Humidity 53    
Precipitation  
Precipitation T in 0.11 in 1.87 in (2005)
Month to date precipitation 3.82 3.36  
Year to date precipitation 26.32 25.72  
Snow  
Snow 0.00 in 0.00 in - ()
Month to date snowfall 0.0 0.0  
Since 1 June snowfall 0.0 0.0  
Since 1 July snowfall 0.0 0.0  
Snow Depth 0.00 in    
Sea Level Pressure  
Sea Level Pressure 30.02 in    
Wind  
Wind Speed 9 mph ()    
Max Wind Speed 23 mph    
Max Gust Speed 34 mph    
Visibility 10.0 miles    
Events Rain    
T = Trace of Precipitation, MM = Missing Value Source: Averaged Metar Reports

Daily Weather History Graph

Daily Weather History Graph

Search for Another Location

Airport or City:

Astronomy

Aug. 30, 2019 Rise Set
Actual Time 6:43 AM EDT 7:58 PM EDT
Civil Twilight 6:14 AM EDT 8:26 PM EDT
Nautical Twilight 5:40 AM EDT 9:01 PM EDT
Astronomical Twilight 5:03 AM EDT 9:37 PM EDT
Moon 6:41 AM EDT (8/30) 8:33 PM EDT (8/30)
Length of Visible Light 14h 11m
Length of Day
13h 14m
New Moon, 0% of the Moon is Illuminated
Aug 30
New Moon
Sep 5
First Quarter
Sep 14
Full
Sep 21
Last Quarter
Sep 28
New

Hourly Weather History & Observations

Time (EDT) Temp. Dew Point Humidity Pressure Visibility Wind Dir Wind Speed Gust Speed Precip Events Conditions
12:51 AM 72.0 °F 55.0 °F 55% 29.91 in 10.0 mi SSW 16.1 mph 27.6 mph 0.00 in Rain Light Rain
1:51 AM 71.1 °F 55.9 °F 59% 29.88 in 10.0 mi South 18.4 mph - 0.00 in Rain Light Rain
2:51 AM 73.0 °F 57.0 °F 57% 29.86 in 10.0 mi SSW 16.1 mph 27.6 mph 0.00 in   Partly Cloudy
3:51 AM 73.0 °F 57.9 °F 59% 29.88 in 10.0 mi SSW 17.3 mph 24.2 mph N/A   Overcast
4:51 AM 72.0 °F 57.9 °F 61% 29.89 in 10.0 mi SW 12.7 mph - N/A   Overcast
5:51 AM 71.1 °F 59.0 °F 66% 29.91 in 10.0 mi SSW 11.5 mph - N/A   Mostly Cloudy
6:51 AM 71.1 °F 59.0 °F 66% 29.93 in 10.0 mi WSW 6.9 mph - N/A   Overcast
7:13 AM 71.1 °F 59.0 °F 66% 29.95 in 10.0 mi WSW 5.8 mph - N/A   Overcast
7:51 AM 71.1 °F 61.0 °F 70% 29.96 in 10.0 mi NW 3.5 mph - N/A   Overcast
8:51 AM 71.1 °F 60.1 °F 68% 29.99 in 10.0 mi NNW 4.6 mph - N/A   Overcast
9:51 AM 71.1 °F 61.0 °F 70% 30.01 in 10.0 mi North 5.8 mph - N/A   Overcast
10:51 AM 72.0 °F 54.0 °F 53% 30.04 in 10.0 mi NNW 6.9 mph - N/A   Overcast
11:48 AM 73.4 °F 57.2 °F 57% 30.06 in 10.0 mi NNW 6.9 mph - N/A   Scattered Clouds
11:51 AM 73.0 °F 57.0 °F 57% 30.05 in 10.0 mi North 5.8 mph - N/A   Scattered Clouds
12:51 PM 73.0 °F 57.0 °F 57% 30.06 in 10.0 mi Variable 6.9 mph - N/A   Clear
1:51 PM 73.9 °F 55.9 °F 53% 30.07 in 10.0 mi WNW 8.1 mph - N/A   Clear
2:51 PM 73.9 °F 57.9 °F 57% 30.06 in 10.0 mi WSW 8.1 mph - N/A   Clear
3:51 PM 75.0 °F 57.9 °F 55% 30.07 in 10.0 mi WSW 9.2 mph - N/A   Clear
4:51 PM 73.9 °F 60.1 °F 62% 30.08 in 10.0 mi West 6.9 mph - N/A   Scattered Clouds
5:51 PM 73.0 °F 60.1 °F 64% 30.08 in 10.0 mi West 6.9 mph - N/A   Partly Cloudy
6:51 PM 73.0 °F 59.0 °F 61% 30.09 in 10.0 mi West 5.8 mph - N/A   Partly Cloudy
7:51 PM 71.1 °F 57.9 °F 63% 30.10 in 10.0 mi Calm Calm - N/A   Clear
8:51 PM 68.0 °F 59.0 °F 73% 30.12 in 10.0 mi Calm Calm - N/A   Clear
9:51 PM 64.9 °F 59.0 °F 81% 30.15 in 10.0 mi Calm Calm - N/A   Clear
10:51 PM 64.0 °F 59.0 °F 84% 30.17 in 10.0 mi Calm Calm - N/A   Scattered Clouds
11:51 PM 62.1 °F 57.0 °F 84% 30.18 in 10.0 mi South 3.5 mph - N/A   Clear